Weather in Placencia

Belize     16°31′08″N   88°22′09″W
temp.,
°C
wind,
m/s
gust,
m/s
humid.,
%
clouds,
%
prec.,
mm/h
press.,
hPa
HPBL,
m
7 august, sun
sun700:00+28ne687776 4.4 1014815
03:00+27ne677799 3.2 1013804
06:00+27ne4578100 5.9 1014604
09:00+27nne4578100 2.7 1015508
12:00+28nne4475100 5.7 1014585
15:00+28nne5675100 0.3 1012753
18:00+28ne6776100 0.4 1013925
21:00+28ene6774100 1.9 1014937
8 august, mon
mon800:00+28ene5679100 3.4 1013684
03:00+28ene5678100 4.6 1012772
06:00+28ene6776100 9.4 1013879
09:00+28e7875100 2.8 10141080
12:00+28ene6777100 4.6 1014858
15:00+28ene7876100 1.0 1012959
18:00+28ne7877100 1.9 1012877
21:00+28ne7878100 3.3 1014771
9 august, tue
tue900:00+27ne5679100 7.2 1013613
03:00+27nne3478100 2.9 1012664
06:00+28ene4675100 6.4 1013780
09:00+28ne3476100 3.1 1014647
12:00+28ne237497 5.4 1014520
15:00+28ne6674100 5.9 1013539
18:00+27nne5575100 6.9 1013561
21:00+27ne567719 0.0 1014663
10 august, wed
wed1000:00+27ene467782 3.7 1014644
03:00+26nnw338392 3.1 1013269
06:00+25nnw4486100 5.3 1014361
09:00+26nw448494 1.5 1015319
12:00+28ne347871 3.6 1014380
15:00+28ene667491 0.3 1012626
18:00+29ene8107674 0.3 10131062
21:00+28ene9107881 2.4 1014993
11 august, thu
thu1100:00+28ene91179100 6.3 10141053
03:00+28e91079100 4.3 1012976
06:00+28e8979100 6.3 1013943
09:00+28ese7877100 3.0 1014906
12:00+28e5678100 5.0 1014750
15:00+28ene7877100 1.5 1012981
18:00+28ene8977100 2.6 1012950
21:00+28ene7875100 0.6 1014963